Home   Weather   59°00'N, 17°35'E   Past weeks
Flag for Sweden

Past Weather in 59°00'N, 17°35'E, Sweden — Yesterday and Last 2 Weeks

Now
68 °F

Passing clouds.


Feels Like: 68 °F
Forecast: 71 / 57 °F
Wind: 3 mph from North

Location: Stockholm Bromma Airport

Current Time: Jun 20, 2019 at 11:42:02 pm

Latest Report: Jun 20, 2019 at 10:50 pm


Visibility: N/A

Pressure: 29.71 "Hg

Humidity: 83%

Dew Point: 63 °F

Location of 59°00'N, 17°35'ELocation

Past Weather in 59°00'N, 17°35'E — Graph

°F

59°00'N, 17°35'E Temperature Yesterday

Maximum temperature yesterday: 79 °F (at 3:50 pm)
Minimum temperature yesterday: 59 °F (at 1:20 am)
Average temperature yesterday: 69 °F

High & Low Weather Summary for the Past Weeks

 TemperatureHumidityPressure
High84 °F (Jun 6, 12:50 pm)100% (Jun 13, 6:50 am)30.24 "Hg (Jun 13, 6:50 am)
Low48 °F (Jun 11, 4:20 am)27% (Jun 17, 2:50 pm)29.65 "Hg (Jun 20, 6:20 pm)
Average66 °F65%30.00 "Hg
* Reported Jun 5 10:20 pm — Jun 20 10:20 pm, 59°00'N, 17°35'E. Weather by CustomWeather, © 2019

Note: Actual official high and low records may vary slightly from our data, if they occured in-between our weather recording intervals... More about our weather records

Advertising

59°00'N, 17°35'E Weather History for the Previous 24 Hours

Scroll right to see more
 ConditionsComfort  
Time TempWeatherWind HumidityBarometerVisibility
10:20 pm
Thu, Jun 20
70 °FPassing clouds.6 mph73%29.71 "HgN/A
9:50 pm72 °FPassing clouds.5 mph65%29.68 "HgN/A
9:20 pm72 °FSunny.6 mph65%29.68 "Hg10 mi
8:50 pm73 °FSunny.7 mph61%29.68 "Hg10 mi
8:20 pm75 °FSunny.6 mph61%29.68 "Hg10 mi
7:50 pm77 °FPassing clouds.7 mph54%29.65 "HgN/A
7:20 pm77 °FPassing clouds.10 mph54%29.65 "HgN/A
6:50 pm77 °FSunny.7 mph57%29.65 "Hg10 mi
6:20 pm77 °FPassing clouds.3 mph61%29.65 "HgN/A
5:50 pm75 °FSunny.3 mph65%29.68 "Hg10 mi
5:20 pm73 °FPassing clouds.7 mph69%29.68 "HgN/A
4:50 pm75 °FSunny.12 mph65%29.68 "Hg10 mi
4:20 pm77 °FPassing clouds.7 mph61%29.68 "HgN/A
3:50 pm77 °FThunderstorms. Scattered clouds.10 mph61%29.71 "HgN/A
3:20 pm79 °FPassing clouds.15 mph58%29.68 "HgN/A
2:50 pm81 °FPassing clouds.14 mph51%29.68 "HgN/A
2:20 pm81 °FPassing clouds.14 mph51%29.68 "HgN/A
1:50 pm81 °FSunny.15 mph51%29.71 "Hg10 mi
1:20 pm81 °FPassing clouds.15 mph51%29.71 "HgN/A
12:50 pm81 °FSunny.13 mph48%29.71 "Hg10 mi
12:20 pm81 °FSunny.15 mph51%29.71 "Hg10 mi
11:50 am79 °FSunny.13 mph51%29.74 "Hg10 mi
11:20 am79 °FSunny.14 mph51%29.74 "Hg10 mi
10:50 am79 °FSunny.15 mph48%29.74 "Hg10 mi
10:20 am77 °FPassing clouds.13 mph47%29.74 "HgN/A
9:50 am77 °FSunny.12 mph47%29.74 "Hg10 mi
9:20 am75 °FSunny.14 mph47%29.74 "Hg10 mi
8:50 am73 °FSunny.7 mph53%29.74 "Hg10 mi
8:20 am72 °FSunny.9 mph61%29.77 "Hg10 mi
7:50 am70 °FSunny.8 mph60%29.77 "Hg10 mi
7:20 am68 °FSunny.9 mph69%29.77 "Hg10 mi
6:50 am66 °FSunny.9 mph68%29.80 "Hg10 mi
6:20 am66 °FSunny.8 mph68%29.80 "Hg10 mi
5:50 am64 °FPassing clouds.7 mph73%29.80 "HgN/A
5:20 am63 °FMild.8 mph73%29.80 "HgN/A
4:50 am63 °FMild.7 mph73%29.80 "HgN/A
4:20 am61 °FCool.5 mph77%29.80 "HgN/A
3:50 am61 °FCool.6 mph77%29.80 "HgN/A
3:20 am63 °FMild.6 mph73%29.83 "HgN/A
2:50 am63 °FMild.6 mph68%29.83 "HgN/A
2:20 am64 °FMild.5 mph64%29.83 "HgN/A
1:50 am66 °FPassing clouds.8 mph60%29.83 "HgN/A
1:20 am66 °FOvercast.6 mph60%29.83 "HgN/A
12:50 am66 °FOvercast.5 mph64%29.83 "HgN/A
12:20 am66 °FOvercast.6 mph68%29.83 "HgN/A
11:50 pm
Wed, Jun 19
66 °FPassing clouds.6 mph68%29.83 "HgN/A
11:20 pm66 °FOvercast.6 mph68%29.83 "HgN/A
Weather by CustomWeather, © 2019

See weather overview